TimeMST,TemperatureF,Dew PointF,Humidity,Sea Level PressureIn,VisibilityMPH,Wind Direction,Wind SpeedMPH,Gust SpeedMPH,PrecipitationIn,Events,Conditions,WindDirDegrees,DateUTC
12:56 AM,53.1,16.0,23,29.86,10.0,SSW,9.2,-,N/A,,Clear,200,2013-05-25 07:56:00
1:56 AM,53.1,17.1,24,29.86,10.0,SSE,5.8,-,N/A,,Clear,150,2013-05-25 08:56:00
2:56 AM,48.9,16.0,27,29.87,10.0,SE,4.6,-,N/A,,Clear,130,2013-05-25 09:56:00
3:56 AM,48.0,16.0,28,29.88,10.0,SE,5.8,-,N/A,,Clear,140,2013-05-25 10:56:00
4:56 AM,48.9,14.0,25,29.90,10.0,ESE,6.9,-,N/A,,Clear,120,2013-05-25 11:56:00
5:56 AM,48.9,14.0,25,29.92,10.0,ESE,9.2,-,N/A,,Clear,120,2013-05-25 12:56:00
6:56 AM,55.0,16.0,22,29.92,10.0,ESE,5.8,-,N/A,,Clear,110,2013-05-25 13:56:00
7:56 AM,68.0,21.0,17,29.91,10.0,East,9.2,-,N/A,,Clear,100,2013-05-25 14:56:00
8:56 AM,75.0,25.0,16,29.89,10.0,East,10.4,16.1,N/A,,Clear,100,2013-05-25 15:56:00
9:56 AM,81.0,19.9,10,29.88,10.0,SSW,17.3,25.3,N/A,,Clear,200,2013-05-25 16:56:00
10:56 AM,81.0,10.9,7,29.89,10.0,South,12.7,23.0,N/A,,Clear,190,2013-05-25 17:56:00
11:56 AM,84.9,6.1,5,29.87,10.0,SW,20.7,29.9,N/A,,Clear,230,2013-05-25 18:56:00
12:56 PM,86.0,10.0,6,29.86,10.0,SW,16.1,27.6,N/A,,Clear,230,2013-05-25 19:56:00
1:56 PM,86.0,7.0,5,29.85,10.0,SW,20.7,28.8,N/A,,Clear,230,2013-05-25 20:56:00
2:56 PM,86.0,12.0,6,29.84,10.0,SSW,20.7,26.5,N/A,,Clear,200,2013-05-25 21:56:00
3:56 PM,87.1,7.0,5,29.83,10.0,SW,23.0,28.8,N/A,,Clear,220,2013-05-25 22:56:00
4:56 PM,82.9,3.0,5,29.83,10.0,SW,23.0,28.8,N/A,,Clear,220,2013-05-25 23:56:00
5:56 PM,80.1,8.1,6,29.85,10.0,SW,12.7,-,N/A,,Clear,230,2013-05-26 00:56:00
6:56 PM,77.0,6.1,7,29.85,10.0,South,15.0,-,N/A,,Clear,190,2013-05-26 01:56:00
7:56 PM,72.0,9.0,9,29.85,10.0,SSW,10.4,-,N/A,,Clear,210,2013-05-26 02:56:00
8:56 PM,66.9,12.0,12,29.86,10.0,SSW,12.7,-,N/A,,Clear,200,2013-05-26 03:56:00
9:56 PM,59.0,10.9,15,29.89,10.0,SSW,5.8,-,N/A,,Clear,210,2013-05-26 04:56:00
10:56 PM,54.0,9.0,17,29.90,10.0,Calm,Calm,-,N/A,,Clear,0,2013-05-26 05:56:00
11:56 PM,53.1,10.9,19,29.89,10.0,SSW,4.6,-,N/A,,Clear,210,2013-05-26 06:56:00